Hourly Weather Barpeta

Today, 8 March, Monday

Time Temperature Precipitation Wind Pressure Humidity
00:00 +21°C° 0 mm 2 mps 758 mmHg 48%
01:00 +21°C° 0 mm 2 mps 757 mmHg 49%
02:00 +20°C° 0 mm 2 mps 757 mmHg 50%
03:00 +20°C° 0 mm 2 mps 756 mmHg 52%
04:00 +20°C° 0 mm 2 mps 757 mmHg 52%
05:00 +19°C° 0 mm 2 mps 757 mmHg 53%
06:00 +19°C° 0 mm 2 mps 757 mmHg 55%
07:00 +21°C° 0 mm 3 mps 758 mmHg 49%
08:00 +25°C° 0 mm 3 mps 758 mmHg 43%
09:00 +27°C° 0 mm 4 mps 759 mmHg 37%
10:00 +29°C° 0 mm 3 mps 759 mmHg 33%
11:00 +31°C° 0 mm 3 mps 758 mmHg 30%
12:00 +33°C° 0 mm 3 mps 758 mmHg 27%
13:00 +34°C° 0 mm 2 mps 757 mmHg 25%
14:00 +34°C° 0 mm 2 mps 756 mmHg 23%
15:00 +35°C° 0 mm 2 mps 755 mmHg 21%
16:00 +32°C° 0 mm 2 mps 755 mmHg 24%
17:00 +31°C° 0 mm 2 mps 755 mmHg 26%
18:00 +29°C° 0 mm 2 mps 756 mmHg 28%
19:00 +28°C° 0 mm 2 mps 756 mmHg 30%
20:00 +27°C° 0 mm 2 mps 757 mmHg 33%
21:00 +26°C° 0 mm 1 mps 757 mmHg 35%
22:00 +25°C° 0 mm 1 mps 757 mmHg 36%
23:00 +24°C° 0 mm 1 mps 757 mmHg 38%

Tomorrow, 9 March, Tuesday

Time Temperature Precipitation Wind Pressure Humidity
00:00 +24°C° 0 mm 1 mps 757 mmHg 39%
01:00 +23°C° 0 mm 1 mps 756 mmHg 41%
02:00 +22°C° 0 mm 1 mps 756 mmHg 43%
03:00 +22°C° 0 mm 1 mps 755 mmHg 45%
04:00 +21°C° 0 mm 1 mps 756 mmHg 46%
05:00 +21°C° 0 mm 1 mps 756 mmHg 47%
06:00 +20°C° 0 mm 1 mps 756 mmHg 49%
07:00 +23°C° 0 mm 2 mps 757 mmHg 43%
08:00 +26°C° 0 mm 3 mps 757 mmHg 37%
09:00 +28°C° 0 mm 3 mps 758 mmHg 32%
10:00 +30°C° 0 mm 3 mps 757 mmHg 29%
11:00 +33°C° 0 mm 3 mps 757 mmHg 26%
12:00 +35°C° 0 mm 3 mps 757 mmHg 23%
13:00 +36°C° 0 mm 3 mps 756 mmHg 22%
14:00 +36°C° 0 mm 3 mps 755 mmHg 21%
15:00 +37°C° 0 mm 3 mps 754 mmHg 19%
16:00 +35°C° 0 mm 3 mps 754 mmHg 21%
17:00 +34°C° 0 mm 4 mps 755 mmHg 23%
18:00 +33°C° 0 mm 4 mps 755 mmHg 25%
19:00 +31°C° 0 mm 3 mps 755 mmHg 29%
20:00 +29°C° 0 mm 3 mps 756 mmHg 33%
21:00 +28°C° 0 mm 2 mps 757 mmHg 37%
22:00 +27°C° 0 mm 2 mps 756 mmHg 39%
23:00 +26°C° 0 mm 2 mps 756 mmHg 42%

Day after tomorrow, 10 March, Wednesday

Time Temperature Precipitation Wind Pressure Humidity
00:00 +25°C° 0 mm 2 mps 756 mmHg 44%
01:00 +25°C° 0 mm 2 mps 756 mmHg 44%
02:00 +24°C° 0 mm 3 mps 756 mmHg 44%
03:00 +22°C° 0 mm 3 mps 755 mmHg 44%
04:00 +22°C° 0 mm 3 mps 755 mmHg 45%
05:00 +22°C° 0 mm 3 mps 756 mmHg 47%
06:00 +21°C° 0 mm 3 mps 756 mmHg 49%
07:00 +23°C° 0 mm 4 mps 756 mmHg 46%
08:00 +27°C° 0 mm 4 mps 757 mmHg 42%
09:00 +29°C° 0 mm 5 mps 757 mmHg 39%
10:00 +32°C° 0 mm 5 mps 757 mmHg 34%
11:00 +34°C° 0 mm 5 mps 756 mmHg 30%
12:00 +36°C° 0 mm 4 mps 756 mmHg 26%
13:00 +36°C° 0 mm 3 mps 755 mmHg 24%
14:00 +37°C° 0 mm 2 mps 755 mmHg 22%
15:00 +37°C° 0 mm 1 mps 754 mmHg 20%
16:00 +36°C° 0 mm 2 mps 754 mmHg 21%
17:00 +35°C° 0 mm 2 mps 754 mmHg 23%
18:00 +34°C° 0 mm 3 mps 754 mmHg 25%
19:00 +31°C° 0 mm 3 mps 755 mmHg 30%
20:00 +29°C° 0 mm 3 mps 755 mmHg 35%
21:00 +27°C° 0 mm 3 mps 756 mmHg 39%
22:00 +26°C° 0 mm 2 mps 756 mmHg 42%
23:00 +25°C° 0 mm 2 mps 756 mmHg 44%

11 March, Thursday

Time Temperature Precipitation Wind Pressure Humidity
00:00 +25°C° 0 mm 2 mps 756 mmHg 47%
01:00 +24°C° 0 mm 2 mps 756 mmHg 48%
02:00 +24°C° 0 mm 3 mps 756 mmHg 48%
03:00 +24°C° 0 mm 3 mps 755 mmHg 49%
04:00 +22°C° 0 mm 3 mps 755 mmHg 53%
05:00 +22°C° 0 mm 3 mps 756 mmHg 56%
06:00 +21°C° 0 mm 4 mps 756 mmHg 59%
07:00 +23°C° 0 mm 4 mps 757 mmHg 54%
08:00 +26°C° 0 mm 5 mps 757 mmHg 48%
09:00 +28°C° 0 mm 6 mps 758 mmHg 43%
10:00 +32°C° 0 mm 5 mps 757 mmHg 38%
11:00 +34°C° 0 mm 5 mps 757 mmHg 33%
12:00 +36°C° 0 mm 4 mps 757 mmHg 28%
13:00 +36°C° 0 mm 3 mps 756 mmHg 26%
14:00 +37°C° 0 mm 2 mps 755 mmHg 24%
15:00 +38°C° 0 mm 2 mps 755 mmHg 22%
16:00 +36°C° 0 mm 2 mps 755 mmHg 23%
17:00 +35°C° 0 mm 2 mps 755 mmHg 25%
18:00 +34°C° 0 mm 3 mps 755 mmHg 27%
19:00 +31°C° 0.3 mm 2 mps 755 mmHg 32%
20:00 +29°C° 0.3 mm 2 mps 756 mmHg 37%
21:00 +28°C° 0.3 mm 1 mps 757 mmHg 42%
22:00 +27°C° 0.1 mm 1 mps 757 mmHg 44%
23:00 +26°C° 0.1 mm 2 mps 757 mmHg 47%

12 March, Friday

Time Temperature Precipitation Wind Pressure Humidity
00:00 +25°C° 0.1 mm 2 mps 757 mmHg 50%
01:00 +25°C° 0 mm 2 mps 757 mmHg 50%
02:00 +24°C° 0 mm 3 mps 757 mmHg 51%
03:00 +24°C° 0 mm 3 mps 756 mmHg 52%
04:00 +24°C° 0 mm 3 mps 757 mmHg 53%
05:00 +22°C° 0 mm 3 mps 757 mmHg 55%
06:00 +22°C° 0 mm 3 mps 757 mmHg 56%
07:00 +25°C° 0 mm 4 mps 758 mmHg 51%
08:00 +27°C° 0 mm 4 mps 758 mmHg 46%
09:00 +29°C° 0 mm 5 mps 759 mmHg 41%
10:00 +33°C° 0 mm 5 mps 758 mmHg 36%
11:00 +35°C° 0 mm 4 mps 758 mmHg 31%
12:00 +37°C° 0 mm 4 mps 757 mmHg 26%
13:00 +38°C° 0 mm 3 mps 757 mmHg 24%
14:00 +38°C° 0 mm 2 mps 756 mmHg 22%
15:00 +39°C° 0 mm 1 mps 755 mmHg 20%
16:00 +37°C° 0 mm 1 mps 755 mmHg 21%
17:00 +35°C° 0 mm 1 mps 755 mmHg 22%
18:00 +34°C° 0 mm 1 mps 755 mmHg 24%
19:00 +32°C° 0 mm 1 mps 756 mmHg 26%
20:00 +31°C° 0 mm 1 mps 756 mmHg 28%
21:00 +29°C° 0 mm 1 mps 757 mmHg 31%
22:00 +29°C° 0 mm 1 mps 757 mmHg 33%
23:00 +28°C° 0 mm 1 mps 757 mmHg 35%

13 March, Saturday

Time Temperature Precipitation Wind Pressure Humidity
00:00 +27°C° 0 mm 2 mps 757 mmHg 37%
01:00 +26°C° 0 mm 2 mps 756 mmHg 39%
02:00 +26°C° 0 mm 2 mps 756 mmHg 41%
03:00 +25°C° 0 mm 2 mps 755 mmHg 43%
04:00 +25°C° 0 mm 2 mps 756 mmHg 44%
05:00 +24°C° 0 mm 2 mps 756 mmHg 46%
06:00 +24°C° 0 mm 1 mps 756 mmHg 47%
07:00 +26°C° 0 mm 2 mps 756 mmHg 42%
08:00 +29°C° 0 mm 3 mps 757 mmHg 37%
09:00 +31°C° 0 mm 3 mps 757 mmHg 33%
10:00 +34°C° 0 mm 3 mps 756 mmHg 29%
11:00 +36°C° 0 mm 2 mps 756 mmHg 26%
12:00 +37°C° 0 mm 1 mps 756 mmHg 23%
13:00 +39°C° 0 mm 3 mps 755 mmHg 21%
14:00 +41°C° 0 mm 4 mps 754 mmHg 18%
15:00 +41°C° 0 mm 5 mps 753 mmHg 16%
16:00 +40°C° 0 mm 5 mps 753 mmHg 18%
17:00 +37°C° 0 mm 4 mps 753 mmHg 20%
18:00 +35°C° 0 mm 4 mps 752 mmHg 22%
19:00 +34°C° 0 mm 3 mps 753 mmHg 25%
20:00 +31°C° 0 mm 3 mps 754 mmHg 28%
21:00 +30°C° 0 mm 2 mps 754 mmHg 32%
22:00 +29°C° 0.1 mm 2 mps 754 mmHg 36%
23:00 +28°C° 0.1 mm 2 mps 755 mmHg 40%
Show more